Home   Weather   Flekkefjord   Past weeks

Flag for Norway Past Weather in Flekkefjord, Norway — Yesterday and Last 2 Weeks

Now
63 °F

Overcast.


Feels Like: 63 °F
Forecast: 58 / 62 °F
Wind: 7 mph from Southeast

Location: Lista Fyr

Current Time: Jul 26, 2017 at 8:43:47 pm

Latest Report: Jul 26, 2017 at 8:00 pm


Visibility: 22 mi

Pressure: 29.67 "Hg

Humidity: 81%

Dew Point: 57 °F

Location of FlekkefjordLocation

Past Weather in Flekkefjord — Graph

°F

Flekkefjord Temperature Yesterday

Maximum temperature yesterday: 66 °F (at 9:00 am)
Minimum temperature yesterday: 59 °F (at 5:00 am)
Average temperature yesterday: 62 °F

High & Low Weather Summary for the Past Weeks

 TemperatureHumidityPressure
High72 °F (Jul 20, 1:00 pm)98% (Jul 16, 3:00 am)30.13 "Hg (Jul 16, 3:00 am)
Low49 °F (Jul 14, 2:00 am)44% (Jul 20, 1:00 pm)29.64 "Hg (Jul 11, 7:00 pm)
Average60 °F81%29.92 "Hg
* Reported Jul 11 7:00 pm — Jul 26 7:00 pm, Flekkefjord. Weather by CustomWeather, © 2017

Note: Actual official high and low records may vary slightly from our data, if they occured in-between our weather recording intervals... More about our weather records

Advertising

Flekkefjord Weather History for the Previous 24 Hours

Scroll right to see more
 ConditionsComfort  
Time TempWeatherWind HumidityBarometerVisibility
7:00 pm
Wed, Jul 26
64 °FMild.8 mph76%29.69 "HgN/A
6:00 pm66 °FMild.10 mph80%29.70 "HgN/A
5:00 pm66 °FMild.10 mph79%29.71 "HgN/A
4:00 pm67 °FMild.8 mph80%29.73 "HgN/A
3:00 pm67 °FMild.8 mph81%29.73 "HgN/A
2:00 pm67 °FOvercast.5 mph81%29.75 "Hg19 mi
1:00 pm69 °FMild.6 mph77%29.75 "HgN/A
12:00 pm68 °FMild.6 mph72%29.76 "HgN/A
11:00 am71 °FPassing clouds.6 mph61%29.77 "Hg28 mi
10:00 am69 °FMild.3 mph68%29.78 "HgN/A
9:00 am68 °FMild.3 mph66%29.78 "HgN/A
8:00 am64 °FScattered clouds.2 mph79%29.79 "Hg22 mi
7:00 am59 °FCool.1 mph88%29.79 "HgN/A
6:00 am53 °FCool.3 mph92%29.80 "HgN/A
5:00 am59 °FCool.3 mph88%29.81 "HgN/A
4:00 am60 °FCool.6 mph85%29.81 "HgN/A
3:00 am60 °FCool.3 mph85%29.83 "HgN/A
2:00 am60 °FCool.5 mph83%29.83 "HgN/A
1:00 am60 °FCool.3 mph85%29.84 "HgN/A
12:00 am60 °FCool.2 mph90%29.85 "HgN/A
11:00 pm
Tue, Jul 25
61 °FCool.5 mph89%29.86 "HgN/A
10:00 pm62 °FCool.5 mph82%29.87 "HgN/A
9:00 pm62 °FMild.6 mph81%29.88 "HgN/A
8:00 pm63 °FOvercast.3 mph83%29.88 "Hg28 mi
Weather by CustomWeather, © 2017

See weather overviewHow to use our weather pages